Change the Weather History Date:

Thursday, November 24, 2011

  Actual Average Record
Temperature  
Mean Temperature 56 °F -  
Max Temperature 68 °F 66 °F 80 °F (1973)
Min Temperature 45 °F 42 °F 20 °F (1970)
Degree Days  
Heating Degree Days 8    
Growing Degree Days 6 (Base 50)    
Moisture  
Dew Point 45 °F    
Average Humidity 75    
Maximum Humidity 97    
Minimum Humidity 37    
Precipitation  
Precipitation 0.01 in - - ()
Sea Level Pressure  
Sea Level Pressure 30.28 in    
Wind  
Wind Speed 4 mph (NNE)    
Max Wind Speed 6 mph    
Max Gust Speed -    
Visibility 9 miles    
Events      
Averages and records for this station are not official NWS values.
T = Trace of Precipitation, MM = Missing Value Source: NWS Daily Summary

Daily Weather History Graph

Daily Weather History Graph

Search for Another Location

Airport or City:

Trip Planner

Search our weather history database for the weather conditions in past years. The results will help you decide how hot, cold, wet, or windy it might be!

Date:

Astronomy

Nov. 24, 2011 Rise Set
Actual Time 6:36 AM CST 5:00 PM CST
Civil Twilight 6:10 AM CST 5:26 PM CST
Nautical Twilight 5:40 AM CST 5:55 PM CST
Astronomical Twilight 5:11 AM CST 6:25 PM CST
Moon 5:53 AM CST (11/24) 4:33 PM CST (11/24)
Length of Visible Light 11h 15m
Length of Day
10h 23m
Waning Crescent, 0% of the Moon is Illuminated
Nov 24
Waning Crescent
Nov 25
New
Dec 2
First Quarter
Dec 10
Full
Dec 17
Last Quarter

Hourly Weather History & Observations

Time (CST) Temp. Windchill Dew Point Humidity Pressure Visibility Wind Dir Wind Speed Gust Speed Precip Events Conditions
12:53 AM 50.0 °F - 48.0 °F 93% 30.25 in 9.0 mi North 4.6 mph - N/A   Clear
1:53 AM 48.9 °F - 46.9 °F 93% 30.26 in 9.0 mi NNE 5.8 mph - N/A   Clear
3:53 AM 46.9 °F - 45.0 °F 93% 30.27 in 8.0 mi NNE 3.5 mph - N/A   Clear
4:53 AM 46.0 °F 43.9 °F 44.1 °F 93% 30.28 in 8.0 mi NNE 4.6 mph - N/A   Clear
5:53 AM 46.0 °F 43.1 °F 44.1 °F 93% 30.30 in 8.0 mi NNE 5.8 mph - N/A   Clear
6:53 AM 46.0 °F 43.1 °F 44.1 °F 93% 30.30 in 7.0 mi NE 5.8 mph - 0.01 in   Clear
7:53 AM 48.9 °F - 45.0 °F 86% 30.32 in 9.0 mi Variable 4.6 mph - N/A   Clear
8:53 AM 52.0 °F - 45.0 °F 77% 30.33 in 10.0 mi Variable 5.8 mph - N/A   Clear
9:53 AM 55.9 °F - 46.0 °F 69% 30.33 in 10.0 mi Variable 5.8 mph - N/A   Clear
10:53 AM 60.1 °F - 44.1 °F 55% 30.32 in 10.0 mi NE 5.8 mph - N/A   Clear
11:53 AM 64.0 °F - 43.0 °F 46% 30.30 in 10.0 mi Variable 3.5 mph - N/A   Clear
1:53 PM 68.0 °F - 41.0 °F 37% 30.27 in 10.0 mi North 3.5 mph - N/A   Clear
2:53 PM 68.0 °F - 41.0 °F 37% 30.26 in 10.0 mi NE 3.5 mph - N/A   Clear
3:53 PM 68.0 °F - 42.1 °F 39% 30.26 in 10.0 mi Variable 3.5 mph - N/A   Clear
4:53 PM 62.1 °F - 48.0 °F 60% 30.25 in 10.0 mi Calm Calm - N/A   Clear
5:53 PM 57.0 °F - 46.0 °F 67% 30.26 in 10.0 mi Calm Calm - N/A   Clear
6:53 PM 52.0 °F - 46.0 °F 80% 30.28 in 10.0 mi Calm Calm - N/A   Clear
7:53 PM 48.9 °F - 45.0 °F 86% 30.29 in 10.0 mi Calm Calm - N/A   Clear
8:53 PM 48.9 °F - 45.0 °F 86% 30.29 in 10.0 mi Calm Calm - N/A   Clear
9:53 PM 45.0 °F - 44.1 °F 97% 30.27 in 10.0 mi Calm Calm - N/A   Clear
11:53 PM 45.0 °F - 43.0 °F 93% 30.26 in 10.0 mi Calm Calm - N/A   Clear